Hourly Weather Oslo

Today, 4 August, Wednesday

Time Temperature Precipitation Wind Pressure Humidity
00:00 +10°C° 0 mm 0 mps 750 mmHg 82%
01:00 +9°C° 0 mm 0 mps 751 mmHg 84%
02:00 +9°C° 0 mm 0 mps 751 mmHg 87%
03:00 +9°C° 0 mm 0 mps 751 mmHg 89%
04:00 +8°C° 0 mm 0 mps 751 mmHg 92%
05:00 +10°C° 0 mm 0 mps 751 mmHg 87%
06:00 +12°C° 0 mm 0 mps 751 mmHg 81%
07:00 +13°C° 0 mm 0 mps 751 mmHg 76%
08:00 +16°C° 0 mm 1 mps 751 mmHg 70%
09:00 +19°C° 0 mm 1 mps 751 mmHg 63%
10:00 +19°C° 0 mm 2 mps 751 mmHg 56%
11:00 +20°C° 0.2 mm 2 mps 751 mmHg 55%
12:00 +20°C° 0.2 mm 3 mps 751 mmHg 54%
13:00 +21°C° 0.2 mm 3 mps 751 mmHg 53%
14:00 +21°C° 0.1 mm 3 mps 751 mmHg 52%
15:00 +21°C° 0.1 mm 3 mps 751 mmHg 51%
16:00 +21°C° 0.1 mm 3 mps 751 mmHg 49%
17:00 +20°C° 0 mm 3 mps 751 mmHg 55%
18:00 +19°C° 0 mm 3 mps 751 mmHg 60%
19:00 +18°C° 0 mm 3 mps 751 mmHg 66%
20:00 +16°C° 0 mm 2 mps 751 mmHg 76%
21:00 +14°C° 0 mm 2 mps 751 mmHg 86%
22:00 +12°C° 0 mm 1 mps 752 mmHg 96%
23:00 +12°C° 0 mm 1 mps 752 mmHg 96%

Tomorrow, 5 August, Thursday

Time Temperature Precipitation Wind Pressure Humidity
00:00 +11°C° 0 mm 1 mps 752 mmHg 97%
01:00 +11°C° 0 mm 1 mps 752 mmHg 97%
02:00 +11°C° 0 mm 1 mps 752 mmHg 98%
03:00 +11°C° 0 mm 1 mps 752 mmHg 98%
04:00 +11°C° 0 mm 1 mps 751 mmHg 98%
05:00 +12°C° 0 mm 1 mps 752 mmHg 94%
06:00 +13°C° 0 mm 1 mps 752 mmHg 90%
07:00 +14°C° 0 mm 1 mps 752 mmHg 87%
08:00 +16°C° 0 mm 1 mps 752 mmHg 76%
09:00 +18°C° 0 mm 2 mps 752 mmHg 65%
10:00 +19°C° 0 mm 3 mps 752 mmHg 55%
11:00 +20°C° 0 mm 3 mps 751 mmHg 52%
12:00 +21°C° 0 mm 3 mps 751 mmHg 49%
13:00 +21°C° 0 mm 4 mps 751 mmHg 46%
14:00 +21°C° 0 mm 3 mps 751 mmHg 45%
15:00 +21°C° 0 mm 3 mps 751 mmHg 45%
16:00 +21°C° 0 mm 3 mps 751 mmHg 45%
17:00 +20°C° 0 mm 3 mps 751 mmHg 50%
18:00 +20°C° 0 mm 2 mps 751 mmHg 56%
19:00 +19°C° 0 mm 2 mps 750 mmHg 61%
20:00 +18°C° 0 mm 1 mps 751 mmHg 69%
21:00 +15°C° 0 mm 1 mps 751 mmHg 77%
22:00 +12°C° 0 mm 0 mps 751 mmHg 85%
23:00 +12°C° 0 mm 0 mps 751 mmHg 86%

Day after tomorrow, 6 August, Friday

Time Temperature Precipitation Wind Pressure Humidity
00:00 +11°C° 0 mm 0 mps 751 mmHg 87%
01:00 +12°C° 0 mm 1 mps 751 mmHg 88%
02:00 +12°C° 0 mm 1 mps 751 mmHg 87%
03:00 +12°C° 0 mm 1 mps 751 mmHg 86%
04:00 +12°C° 0 mm 1 mps 751 mmHg 86%
05:00 +13°C° 0 mm 1 mps 751 mmHg 82%
06:00 +14°C° 0 mm 1 mps 751 mmHg 79%
07:00 +16°C° 0 mm 1 mps 751 mmHg 75%
08:00 +18°C° 0.1 mm 1 mps 751 mmHg 72%
09:00 +19°C° 0.1 mm 1 mps 751 mmHg 70%
10:00 +19°C° 0.1 mm 2 mps 751 mmHg 67%
11:00 +20°C° 0.3 mm 2 mps 750 mmHg 60%
12:00 +21°C° 0.3 mm 3 mps 750 mmHg 54%
13:00 +22°C° 0.3 mm 3 mps 750 mmHg 47%
14:00 +24°C° 0 mm 3 mps 750 mmHg 44%
15:00 +24°C° 0 mm 3 mps 749 mmHg 41%
16:00 +24°C° 0 mm 3 mps 749 mmHg 38%
17:00 +24°C° 0 mm 3 mps 749 mmHg 43%
18:00 +22°C° 0 mm 3 mps 749 mmHg 48%
19:00 +21°C° 0 mm 3 mps 749 mmHg 54%
20:00 +20°C° 0 mm 2 mps 749 mmHg 57%
21:00 +19°C° 0 mm 2 mps 749 mmHg 61%
22:00 +18°C° 0 mm 2 mps 749 mmHg 65%
23:00 +17°C° 0.1 mm 2 mps 749 mmHg 69%

7 August, Saturday

Time Temperature Precipitation Wind Pressure Humidity
00:00 +16°C° 0.1 mm 2 mps 749 mmHg 74%
01:00 +16°C° 0.1 mm 2 mps 749 mmHg 78%
02:00 +15°C° 0.1 mm 2 mps 749 mmHg 83%
03:00 +14°C° 0.1 mm 2 mps 750 mmHg 88%
04:00 +13°C° 0.1 mm 2 mps 750 mmHg 93%
05:00 +14°C° 0 mm 2 mps 750 mmHg 88%
06:00 +14°C° 0 mm 2 mps 750 mmHg 84%
07:00 +15°C° 0 mm 2 mps 750 mmHg 80%
08:00 +16°C° 0 mm 3 mps 749 mmHg 71%
09:00 +18°C° 0 mm 3 mps 749 mmHg 61%
10:00 +19°C° 0 mm 3 mps 749 mmHg 52%
11:00 +19°C° 0 mm 3 mps 748 mmHg 52%
12:00 +20°C° 0 mm 2 mps 748 mmHg 53%
13:00 +20°C° 0 mm 2 mps 747 mmHg 53%
14:00 +19°C° 0.5 mm 2 mps 747 mmHg 63%
15:00 +18°C° 0.5 mm 1 mps 748 mmHg 73%
16:00 +16°C° 0.5 mm 1 mps 748 mmHg 84%
17:00 +16°C° 0.3 mm 1 mps 747 mmHg 87%
18:00 +15°C° 0.3 mm 1 mps 747 mmHg 90%
19:00 +15°C° 0.3 mm 1 mps 747 mmHg 93%
20:00 +15°C° 0.2 mm 1 mps 747 mmHg 93%
21:00 +14°C° 0.2 mm 1 mps 747 mmHg 93%
22:00 +14°C° 0.2 mm 2 mps 747 mmHg 94%
23:00 +14°C° 0.2 mm 2 mps 747 mmHg 93%

8 August, Sunday

Time Temperature Precipitation Wind Pressure Humidity
00:00 +14°C° 0.2 mm 2 mps 747 mmHg 93%
01:00 +14°C° 0.2 mm 2 mps 747 mmHg 92%
02:00 +13°C° 0.1 mm 2 mps 746 mmHg 92%
03:00 +13°C° 0.1 mm 2 mps 746 mmHg 92%
04:00 +13°C° 0.1 mm 2 mps 746 mmHg 93%
05:00 +13°C° 0.1 mm 1 mps 746 mmHg 92%
06:00 +13°C° 0.1 mm 1 mps 746 mmHg 92%
07:00 +13°C° 0.1 mm 1 mps 746 mmHg 91%
08:00 +14°C° 0.3 mm 1 mps 746 mmHg 90%
09:00 +14°C° 0.3 mm 1 mps 746 mmHg 88%
10:00 +15°C° 0.3 mm 1 mps 746 mmHg 87%
11:00 +16°C° 0.1 mm 1 mps 745 mmHg 81%
12:00 +18°C° 0.1 mm 1 mps 745 mmHg 76%
13:00 +19°C° 0.1 mm 1 mps 745 mmHg 70%
14:00 +20°C° 0.3 mm 1 mps 745 mmHg 69%
15:00 +20°C° 0.3 mm 1 mps 745 mmHg 67%
16:00 +21°C° 0.3 mm 1 mps 745 mmHg 65%
17:00 +20°C° 0.3 mm 1 mps 745 mmHg 71%
18:00 +19°C° 0.3 mm 1 mps 745 mmHg 76%
19:00 +19°C° 0.3 mm 1 mps 745 mmHg 81%
20:00 +18°C° 0 mm 1 mps 746 mmHg 84%
21:00 +15°C° 0 mm 1 mps 746 mmHg 87%
22:00 +14°C° 0 mm 1 mps 746 mmHg 91%
23:00 +14°C° 0 mm 1 mps 747 mmHg 91%

9 August, Monday

Time Temperature Precipitation Wind Pressure Humidity
00:00 +14°C° 0 mm 1 mps 747 mmHg 92%
01:00 +13°C° 0 mm 0 mps 747 mmHg 92%
02:00 +12°C° 0 mm 0 mps 747 mmHg 93%
03:00 +12°C° 0 mm 0 mps 747 mmHg 94%
04:00 +12°C° 0 mm 0 mps 747 mmHg 95%
05:00 +13°C° 0 mm 0 mps 748 mmHg 93%
06:00 +13°C° 0 mm 0 mps 748 mmHg 91%
07:00 +14°C° 0 mm 0 mps 748 mmHg 89%
08:00 +18°C° 0.1 mm 1 mps 748 mmHg 83%
09:00 +19°C° 0.1 mm 1 mps 748 mmHg 76%
10:00 +19°C° 0.1 mm 2 mps 749 mmHg 70%
11:00 +20°C° 0.3 mm 2 mps 749 mmHg 67%
12:00 +21°C° 0.3 mm 2 mps 749 mmHg 64%
13:00 +21°C° 0.3 mm 3 mps 749 mmHg 61%
14:00 +21°C° 0.3 mm 3 mps 749 mmHg 63%
15:00 +21°C° 0.3 mm 3 mps 749 mmHg 65%
16:00 +20°C° 0.3 mm 4 mps 749 mmHg 68%
17:00 +19°C° 0.3 mm 3 mps 749 mmHg 74%
18:00 +18°C° 0.3 mm 3 mps 750 mmHg 80%
19:00 +17°C° 0.3 mm 3 mps 750 mmHg 85%
20:00 +16°C° 0 mm 2 mps 750 mmHg 89%
21:00 +15°C° 0 mm 2 mps 750 mmHg 93%
22:00 +14°C° 0 mm 1 mps 750 mmHg 97%
23:00 +13°C° 0 mm 1 mps 751 mmHg 97%
Show more